Waarnemingen

Advertentie
Mijn weer
Aguilas, Spanje (8432): temperatuur & dauwpunt: 19.04.2018 14:00:00 - 25.04.2018 14:00:00 (CEST)Aguilas, Spanje (8432): windsnelheid & windstoten: 19.04.2018 14:00:00 - 25.04.2018 14:00:00 (CEST)Aguilas, Spanje (8432): windrichting: 19.04.2018 14:00:00 - 25.04.2018 14:00:00 (CEST)Aguilas, Spanje (8432): luchtdruk: 19.04.2018 14:00:00 - 25.04.2018 14:00:00 (CEST)Aguilas, Spanje (8432): zicht: 19.04.2018 14:00:00 - 25.04.2018 14:00:00 (CEST)Aguilas, Spanje (8432): Zonneschijnduur: 19.04.2018 14:00:00 - 25.04.2018 14:00:00 (CEST)Aguilas, Spanje (8432): neerslag: 19.04.2018 14:00:00 - 25.04.2018 14:00:00 (CEST)
Datum & Tijd tt [°C] td [°C] ff [km/u] ff [kn] fx [km/u] fx [kn] dd ppp [hPa] vv [km] sd [min] rr [mm]
25.04.2018 14:00:00 - - - - - - - - - - -
25.04.2018 13:00:00 16,4 11,8 20 11 36 19 O 1016,8 9 0 1,4
25.04.2018 12:00:00 16,3 13,1 7 4 30 16 NW 1016,7 5 0 5,0
25.04.2018 11:00:00 17,5 12,0 6 4 28 15 O 1017,0 5 0 0,4
25.04.2018 10:00:00 17,7 12,1 11 6 27 14 O 1016,5 20 0 0,0
25.04.2018 09:00:00 17,2 13,6 5 3 15 8 WNW 1015,8 17 0 0,0
25.04.2018 08:00:00 17,2 12,5 6 3 17 9 NW 1015,4 10 0 -
25.04.2018 07:00:00 17,8 11,8 6 3 37 20 O 1014,4 20 0 1,4
25.04.2018 06:00:00 21,7 8,3 17 9 51 28 ONO 1012,9 20 0 0,0
25.04.2018 05:00:00 22,3 4,8 18 10 46 25 ONO 1013,2 20 0 0,0
25.04.2018 04:00:00 21,9 5,0 7 4 46 25 ONO 1012,8 20 0 0,0
25.04.2018 03:00:00 21,7 4,6 23 12 54 29 ONO 1013,2 20 0 0,0
25.04.2018 02:00:00 21,1 5,0 13 7 21 11 O 1014,7 20 0 -
25.04.2018 01:00:00 21,4 7,3 16 8 36 19 ZO 1017,4 20 0 0,0
25.04.2018 00:00:00 22,6 4,6 18 10 49 27 ONO 1015,6 20 0 0,0
24.04.2018 23:00:00 22,6 4,6 25 13 43 23 O 1014,9 20 0 0,0
24.04.2018 22:00:00 23,2 4,6 19 10 38 21 ONO 1014,0 20 0 0,0
24.04.2018 21:00:00 23,8 5,6 8 4 27 14 ONO 1013,1 20 1 0,0
24.04.2018 20:00:00 25,2 6,4 8 4 40 21 ONO 1012,2 20 31 -
24.04.2018 19:00:00 26,1 7,1 21 12 47 25 O 1012,5 20 60 0,0
24.04.2018 18:00:00 25,9 8,4 26 14 49 27 O 1012,7 20 60 0,0
24.04.2018 17:00:00 26,1 8,5 32 17 56 31 O 1012,9 20 60 0,0
24.04.2018 16:00:00 27,0 7,4 34 18 56 30 O 1013,3 18 60 0,0
24.04.2018 15:00:00 26,5 7,0 29 16 58 31 O 1014,0 16 60 0,0
24.04.2018 14:00:00 26,8 7,3 32 17 66 36 O 1014,4 20 60 -
24.04.2018 13:00:00 26,5 6,5 34 19 72 39 O 1014,9 20 60 0,0
24.04.2018 12:00:00 26,3 6,4 28 15 50 27 O 1015,2 20 60 0,0
24.04.2018 11:00:00 26,0 4,5 22 12 47 26 O 1015,3 20 60 0,0
24.04.2018 10:00:00 24,7 1,5 18 10 38 20 ONO 1015,2 20 60 0,0
24.04.2018 09:00:00 23,4 1,1 6 4 29 16 ZO 1014,9 19 60 0,0
24.04.2018 08:00:00 22,1 -0,7 15 8 38 20 O 1013,9 20 0 -
24.04.2018 07:00:00 22,3 -1,2 19 11 58 31 ONO 1012,7 20 0 0,0
24.04.2018 06:00:00 23,6 -3,9 30 16 71 39 ONO 1010,7 20 0 0,0
24.04.2018 05:00:00 22,9 -1,2 31 17 60 32 ONO 1011,0 20 0 0,0
24.04.2018 04:00:00 23,0 -3,3 31 17 64 35 ONO 1011,2 20 0 0,0
24.04.2018 03:00:00 22,9 -2,0 29 15 53 29 ONO 1012,3 20 0 0,0
24.04.2018 02:00:00 22,8 0,0 23 13 55 30 NO 1013,9 20 0 -
24.04.2018 01:00:00 22,8 1,7 17 9 45 24 NO 1015,2 20 0 0,0
24.04.2018 00:00:00 22,6 3,6 24 13 73 39 ONO 1016,0 20 0 0,0
23.04.2018 23:00:00 23,1 2,5 32 18 71 38 O 1013,2 20 0 0,0
23.04.2018 22:00:00 23,0 3,4 24 13 52 28 ONO 1013,1 9 0 0,0
23.04.2018 21:00:00 23,1 3,6 16 9 49 26 NO 1014,5 20 0 0,0
23.04.2018 20:00:00 23,5 5,8 18 10 43 23 O 1013,2 20 0 -
23.04.2018 19:00:00 24,3 7,0 24 13 51 27 O 1013,3 20 39 0,0
23.04.2018 18:00:00 25,2 7,8 29 16 51 28 O 1012,0 15 4 0,0
23.04.2018 17:00:00 24,4 8,8 22 12 42 23 O 1014,0 17 34 0,0
23.04.2018 16:00:00 26,2 9,6 24 13 48 26 OZO 1014,5 19 60 0,0
23.04.2018 15:00:00 27,0 8,0 29 16 48 26 OZO 1014,5 16 60 0,0
23.04.2018 14:00:00 29,1 3,8 20 11 40 22 O 1015,2 18 60 -
23.04.2018 13:00:00 27,2 2,3 17 9 35 19 O 1015,9 20 16 0,0
23.04.2018 12:00:00 24,8 2,3 20 11 36 20 O 1016,9 20 5 0,0
23.04.2018 11:00:00 24,5 1,3 13 7 25 14 ONO 1016,9 20 22 0,0
23.04.2018 10:00:00 23,3 1,1 16 8 29 16 ONO 1016,5 20 11 0,0
23.04.2018 09:00:00 22,8 0,6 17 9 33 18 ONO 1015,2 20 29 0,0
23.04.2018 08:00:00 18,8 1,7 4 2 11 6 W 1015,0 20 0 -
23.04.2018 07:00:00 20,3 0,6 5 3 15 8 WZW 1013,9 20 0 0,0
23.04.2018 06:00:00 19,8 2,1 4 2 17 9 WZW 1013,2 20 0 0,0
23.04.2018 05:00:00 21,2 1,5 6 3 15 8 ZW 1013,5 20 0 0,0
23.04.2018 04:00:00 20,8 2,1 4 2 16 9 N 1014,4 20 0 0,0
23.04.2018 03:00:00 21,0 3,6 6 3 10 5 ZZW 1015,0 20 0 0,0
23.04.2018 02:00:00 20,6 6,5 4 2 21 12 O 1015,8 20 0 -
23.04.2018 01:00:00 21,4 5,3 5 3 28 15 W 1014,8 20 0 0,0
23.04.2018 00:00:00 22,1 5,1 8 5 32 18 O 1015,5 20 0 0,0
22.04.2018 23:00:00 21,1 5,8 15 8 32 17 O 1015,7 20 0 0,0
22.04.2018 22:00:00 21,6 6,7 19 10 43 23 ONO 1014,5 20 0 0,0
22.04.2018 21:00:00 22,3 6,1 15 8 28 15 O 1014,9 20 0 0,0
22.04.2018 20:00:00 23,1 6,8 18 10 33 18 O 1013,7 20 18 -
22.04.2018 19:00:00 22,9 8,5 20 11 42 23 O 1013,9 20 52 0,0
22.04.2018 18:00:00 23,5 9,2 24 13 42 23 O 1013,9 20 49 0,0
22.04.2018 17:00:00 24,9 8,0 26 14 46 25 O 1013,9 20 60 0,0
22.04.2018 16:00:00 25,6 7,7 31 17 51 27 O 1013,8 17 60 0,0
22.04.2018 15:00:00 25,9 7,0 29 16 48 26 OZO 1014,6 20 60 0,0
22.04.2018 14:00:00 25,8 6,8 28 15 50 27 OZO 1015,1 20 60 -
22.04.2018 13:00:00 26,3 7,3 23 12 39 21 OZO 1015,4 20 60 0,0
22.04.2018 12:00:00 25,2 5,9 18 10 39 21 O 1015,7 20 60 0,0
22.04.2018 11:00:00 24,1 5,5 18 10 33 18 O 1015,9 20 60 0,0
22.04.2018 10:00:00 22,8 5,3 13 7 35 19 O 1015,8 20 60 0,0
22.04.2018 09:00:00 20,7 5,5 6 3 18 10 OZO 1015,8 20 42 0,0
22.04.2018 08:00:00 17,8 6,1 4 2 16 8 ZW 1015,4 20 0 -
22.04.2018 07:00:00 17,8 5,3 3 2 19 10 ZW 1015,1 20 0 0,0
22.04.2018 06:00:00 17,7 6,5 5 3 11 6 W 1015,5 20 0 0,0
22.04.2018 05:00:00 19,0 6,1 5 3 20 11 NNW 1016,1 20 0 0,0
22.04.2018 04:00:00 19,6 5,9 7 4 25 13 NO 1016,6 20 0 0,0
22.04.2018 03:00:00 19,2 6,7 9 5 24 13 ONO 1017,2 20 0 0,0
22.04.2018 02:00:00 19,0 7,1 11 6 30 16 ONO 1017,9 20 0 -
22.04.2018 01:00:00 18,9 7,3 10 5 28 15 ONO 1018,4 20 0 0,0
22.04.2018 00:00:00 19,1 7,1 14 8 34 18 ONO 1018,2 20 0 0,0
21.04.2018 23:00:00 19,2 7,0 13 7 32 17 ONO 1018,0 20 0 0,0
21.04.2018 22:00:00 19,5 7,0 13 7 29 15 ONO 1017,5 20 0 0,0
21.04.2018 21:00:00 20,3 6,5 11 6 31 17 ONO 1017,4 20 0 0,0
21.04.2018 20:00:00 21,2 7,0 20 11 37 20 O 1017,1 18 25 -
21.04.2018 19:00:00 23,0 6,7 18 10 40 22 O 1016,9 19 60 0,0
21.04.2018 18:00:00 23,3 7,4 26 14 44 24 O 1016,7 17 60 0,0
21.04.2018 17:00:00 24,8 7,0 26 14 45 24 OZO 1016,5 17 60 0,0
21.04.2018 16:00:00 24,1 6,8 29 15 47 26 O 1017,2 20 60 0,0
21.04.2018 15:00:00 25,2 6,8 23 12 44 24 O 1017,8 20 60 0,0
21.04.2018 14:00:00 24,4 6,2 19 10 36 19 ONO 1018,1 16 60 -
21.04.2018 13:00:00 23,8 6,1 20 11 39 21 O 1019,0 20 60 0,0
21.04.2018 12:00:00 22,5 7,1 16 8 30 16 ONO 1019,2 20 31 0,0
21.04.2018 11:00:00 20,2 7,3 13 7 35 19 ONO 1019,2 20 2 0,0
21.04.2018 10:00:00 18,9 8,0 13 7 29 16 ONO 1019,5 20 0 0,0
21.04.2018 09:00:00 18,3 8,0 14 7 27 15 ONO 1019,3 20 0 0,0
21.04.2018 08:00:00 18,2 7,0 14 7 31 17 ONO 1019,0 17 0 -
21.04.2018 07:00:00 17,7 6,5 10 5 24 13 ONO 1018,4 20 0 0,0
21.04.2018 06:00:00 18,1 6,8 14 7 30 16 ONO 1017,8 20 0 0,0
21.04.2018 05:00:00 18,2 7,0 13 7 24 13 ONO 1017,7 18 0 0,0
21.04.2018 04:00:00 18,2 7,6 9 5 27 15 NO 1018,4 20 0 0,0
21.04.2018 03:00:00 18,1 8,1 12 6 29 16 NO 1019,0 20 0 0,0
21.04.2018 02:00:00 17,7 8,0 13 7 26 14 ONO 1019,8 20 0 -
21.04.2018 01:00:00 17,6 8,1 8 5 23 13 NO 1020,3 20 0 0,0
21.04.2018 00:00:00 17,7 8,3 9 5 28 15 ONO 1019,9 20 0 0,0
20.04.2018 23:00:00 18,2 8,5 12 7 30 16 ONO 1019,6 20 0 0,0
20.04.2018 22:00:00 18,3 8,5 16 8 37 20 ONO 1018,9 20 0 0,0
20.04.2018 21:00:00 18,7 9,7 19 11 45 24 O 1018,2 19 2 0,0
20.04.2018 20:00:00 19,6 9,8 22 12 48 26 O 1018,3 19 60 -
20.04.2018 19:00:00 20,1 10,5 24 13 50 27 O 1018,4 20 60 0,0
20.04.2018 18:00:00 20,8 10,3 25 14 49 26 O 1018,7 20 60 0,0
20.04.2018 17:00:00 20,9 10,4 22 12 41 22 OZO 1018,8 20 60 0,0
20.04.2018 16:00:00 22,7 9,2 24 13 39 21 OZO 1019,0 20 60 0,0
20.04.2018 15:00:00 22,2 9,7 18 10 45 24 O 1020,0 18 57 0,0
20.04.2018 14:00:00 20,1 9,3 18 10 31 17 O 1020,7 20 3 -
20.04.2018 13:00:00 18,7 9,2 13 7 29 16 ONO 1021,3 20 0 0,0
20.04.2018 12:00:00 18,4 8,7 16 9 34 19 ONO 1021,4 20 0 0,0
20.04.2018 11:00:00 17,8 9,7 16 9 32 17 O 1021,0 20 0 0,0
20.04.2018 10:00:00 17,6 8,9 16 9 28 15 O 1021,1 18 0 0,0
20.04.2018 09:00:00 16,9 9,3 16 9 29 16 O 1020,6 20 2 0,0
20.04.2018 08:00:00 16,2 9,2 10 5 29 16 O 1020,4 18 0 -
20.04.2018 07:00:00 16,4 8,7 10 5 25 13 ONO 1020,1 20 0 0,0
20.04.2018 06:00:00 16,4 8,4 9 5 30 16 NO 1020,7 20 0 0,0
20.04.2018 05:00:00 16,5 8,5 10 6 28 15 ONO 1020,9 20 0 0,0
20.04.2018 04:00:00 16,4 9,0 12 7 27 14 ONO 1021,1 19 0 0,0
20.04.2018 03:00:00 16,1 10,2 13 7 30 16 O 1021,8 17 0 0,0
20.04.2018 02:00:00 17,1 10,0 14 8 28 15 O 1022,1 20 0 -
20.04.2018 01:00:00 16,9 9,6 14 7 37 20 ONO 1022,3 20 0 0,0
20.04.2018 00:00:00 17,0 9,7 15 8 33 18 O 1022,1 20 0 0,0
19.04.2018 23:00:00 17,0 9,9 19 10 36 19 ONO 1022,3 18 0 0,0
19.04.2018 22:00:00 17,2 9,6 15 8 28 15 O 1022,0 20 0 0,0
19.04.2018 21:00:00 17,4 10,5 11 6 21 11 O 1021,4 20 2 0,0
19.04.2018 20:00:00 17,8 11,3 12 6 33 18 O 1021,2 20 60 -
19.04.2018 19:00:00 19,0 10,8 13 7 32 18 O 1021,4 20 60 0,0
19.04.2018 18:00:00 19,7 11,0 20 11 35 19 OZO 1021,4 20 60 0,0
19.04.2018 17:00:00 20,2 11,1 18 10 33 18 OZO 1021,5 20 60 0,0
19.04.2018 16:00:00 19,2 11,4 22 12 39 21 OZO 1021,9 18 60 0,0
19.04.2018 15:00:00 20,2 11,7 22 12 41 22 OZO 1022,0 18 60 0,0
19.04.2018 14:00:00 20,3 12,0 21 11 42 23 OZO 1022,7 20 60 -

tt = temperatuur
td = dauwpunt
ff = windsnelheid
fx = windstoten
dd = windrichting
ppp = luchtdruk
vv = zicht
sd = Zonneschijnduur
rr = neerslag

Weerstations in de omgeving